User: anonymous   Login
Location: Balaclava NSW 2575, Australia
(34.4510°S, 150.4953°E)
Time: 10:40:40
(UTC+10:00)
Language:

DOVE 4 - Orbit

View from above orbital plane
View from above orbital plane
View from above satellite
View from above satellite

Ground track
Ground track

The orbit data is extracted from the following two-line orbital elements,

1 39430U 13066Q   21206.78407185  .00000328  00000-0  68148-4 0  9990
2 39430  97.8134 127.6530 0150689 354.7592   5.2034 14.59641808408632
Epoch (UTC): 25 July 2021 18:49:03
Eccentricity: 0.0150689
inclination: 97.8134°
perigee height: 588 km
apogee height: 801 km
right ascension of ascending node: 127.6530°
argument of perigee: 354.7592°
revolutions per day: 14.59641808
mean anomaly at epoch: 5.2034°
orbit number at epoch: 40863

The dashed part of the orbit path shows where the satellite is in the earth's shadow,  

DLR